Weather History for Alicante, Spain

Change the Weather History Date:

Friday, April 5, 2013

  Actual Average Record
Temperature  
Mean Temperature 58 °F -  
Max Temperature 68 °F 68 °F 81 °F (2014)
Min Temperature 47 °F 51 °F 44 °F (2003)
Degree Days  
Heating Degree Days 8    
Growing Degree Days 8 (Base 50)    
Moisture  
Dew Point 44 °F    
Average Humidity 64    
Maximum Humidity 100    
Minimum Humidity 23    
Precipitation  
Precipitation 0.39 in - - ()
Sea Level Pressure  
Sea Level Pressure 29.67 in    
Wind  
Wind Speed 4 mph ()    
Max Wind Speed 14 mph    
Max Gust Speed 26 mph    
Visibility 5.9 miles    
Events Rain , Thunderstorm    
Averages and records for this station are not official NWS values.
T = Trace of Precipitation, MM = Missing Value Source: Averaged Metar Reports

Daily Weather History Graph

Daily Weather History Graph

Search for Another Location

Airport:

Trip Planner

Search our weather history database for the weather conditions in past years. The results will help you decide how hot, cold, wet, or windy it might be!

Date:

Astronomy

Apr. 05, 2013 Rise Set
Actual Time 7:41 AM CEST 8:29 PM CEST
Civil Twilight 7:14 AM CEST 8:56 PM CEST
Nautical Twilight 6:42 AM CEST 9:27 PM CEST
Astronomical Twilight 6:10 AM CEST 10:00 PM CEST
Moon 4:34 AM CEST (4/5) 3:40 PM CEST (4/5)
Length of Visible Light 13h 41m
Length of Day
12h 48m
Waning Crescent, 26% of the Moon is Illuminated
Apr 5
Waning Crescent
Apr 10
New
Apr 18
First Quarter
Apr 25
Full
May 2
Last Quarter

Hourly Weather History & Observations

Time (CEST) Temp. Dew Point Humidity Pressure Visibility Wind Dir Wind Speed Gust Speed Precip Events Conditions
12:00 AM 59.0 °F 42.8 °F 55% 29.62 in 6.2 mi West 5.8 mph - N/A   Partly Cloudy
12:30 AM 57.2 °F 42.8 °F 59% 29.65 in 6.2 mi Variable 2.3 mph - N/A   Partly Cloudy
1:00 AM 59.0 °F 41.0 °F 51% 29.65 in 6.2 mi WNW 6.9 mph - N/A   Partly Cloudy
1:30 AM 59.0 °F 41.0 °F 51% 29.65 in 6.2 mi WNW 9.2 mph - N/A   Partly Cloudy
2:00 AM 56 °F 39 °F 40% 29.66 in 12 mi SSE 2.3 mph - -   Scattered Clouds
2:00 AM 55.4 °F 41.0 °F 58% 29.65 in - Variable 1.2 mph - N/A   Clear
2:30 AM 57.2 °F 42.8 °F 59% 29.65 in - Variable 1.2 mph - N/A   Clear
3:00 AM 51.8 °F 42.8 °F 71% 29.65 in - WNW 3.5 mph - N/A   Clear
3:30 AM 53.6 °F 42.8 °F 67% 29.62 in - NNW 3.5 mph - N/A   Clear
4:00 AM 51.8 °F 42.8 °F 71% 29.62 in - Variable 1.2 mph - N/A   Clear
4:30 AM 50.0 °F 41.0 °F 71% 29.62 in - West 6.9 mph - N/A   Clear
5:00 AM 51.8 °F 41.0 °F 67% 29.62 in - WSW 6.9 mph - N/A   Clear
5:30 AM 48.2 °F 41.0 °F 76% 29.62 in - West 4.6 mph - N/A   Clear
6:00 AM 50.0 °F 41.0 °F 71% 29.62 in - WSW 3.5 mph - N/A   Clear
6:30 AM 48.2 °F 41.0 °F 76% 29.62 in - West 3.5 mph - N/A   Clear
7:00 AM 48.2 °F 42.8 °F 82% 29.62 in - WNW 6.9 mph - N/A   Clear
7:30 AM 50.0 °F 42.8 °F 76% 29.62 in - WNW 5.8 mph - N/A   Clear
8:00 AM 52 °F 39 °F 51% 29.65 in 25 mi NW 6.9 mph - -   Partly Cloudy
8:00 AM 53.6 °F 42.8 °F 67% 29.62 in - NW 6.9 mph - N/A   Clear
8:30 AM 55.4 °F 42.8 °F 63% 29.65 in - Variable 1.2 mph - N/A   Clear
9:00 AM 55.4 °F 44.6 °F 67% 29.65 in 6.2 mi SSW 5.8 mph - N/A   Partly Cloudy
9:30 AM 55.4 °F 44.6 °F 67% 29.65 in 6.2 mi Variable 2.3 mph - N/A   Partly Cloudy
10:00 AM 59.0 °F 44.6 °F 59% 29.65 in - Variable 2.3 mph - N/A   Clear
10:30 AM 60.8 °F 44.6 °F 55% 29.65 in - SSW 3.5 mph - N/A   Clear
11:00 AM 60.8 °F 44.6 °F 55% 29.68 in - Variable 2.3 mph - N/A   Clear
11:30 AM 64.4 °F 42.8 °F 45% 29.68 in 6.2 mi Variable 2.3 mph - N/A   Partly Cloudy
12:00 PM 64.4 °F 42.8 °F 45% 29.68 in 6.2 mi Variable 2.3 mph - N/A   Partly Cloudy
12:30 PM 64.4 °F 41.0 °F 42% 29.68 in 6.2 mi Variable 2.3 mph - N/A   Partly Cloudy
1:00 PM 66.2 °F 41.0 °F 40% 29.65 in 6.2 mi Variable 1.2 mph - N/A   Partly Cloudy
1:30 PM 68.0 °F 39.2 °F 35% 29.65 in 6.2 mi Variable 3.5 mph - N/A   Partly Cloudy
2:00 PM 67 °F 38 °F 23% 29.66 in 25 mi SE 8.1 mph - -   Scattered Clouds
2:00 PM 68.0 °F 41.0 °F 37% 29.65 in 6.2 mi SE 6.9 mph - N/A   Partly Cloudy
2:30 PM 66.2 °F 41.0 °F 40% 29.65 in 6.2 mi South 6.9 mph - N/A   Partly Cloudy
3:00 PM 68.0 °F 42.8 °F 40% 29.62 in 6.2 mi SE 5.8 mph - N/A   Partly Cloudy
3:30 PM 68.0 °F 41.0 °F 37% 29.62 in 6.2 mi East 9.2 mph - N/A   Partly Cloudy
4:00 PM 66.2 °F 41.0 °F 40% 29.62 in 6.2 mi ESE 9.2 mph - N/A   Scattered Clouds
4:30 PM 66.2 °F 39.2 °F 37% 29.62 in 6.2 mi East 10.4 mph - N/A   Scattered Clouds
5:00 PM 62.6 °F 53.6 °F 72% 29.62 in 6.2 mi ENE 10.4 mph - N/A   Scattered Clouds
5:30 PM 60.8 °F 53.6 °F 77% 29.65 in 6.2 mi NE 10.4 mph - N/A   Scattered Clouds
6:00 PM 57.2 °F 48.2 °F 72% 29.65 in 6.2 mi North 13.8 mph 26.5 mph N/A   Scattered Clouds
6:30 PM 53.6 °F 48.2 °F 82% 29.68 in 3.1 mi NNW 13.8 mph - N/A Rain , Thunderstorm Thunderstorms and Rain
7:00 PM 51.8 °F 48.2 °F 88% 29.71 in 3.1 mi NW 9.2 mph - N/A Rain , Thunderstorm Thunderstorms and Rain
7:30 PM 51.8 °F 46.4 °F 82% 29.71 in 2.5 mi WNW 8.1 mph - N/A Rain Rain
8:00 PM 51 °F 46 °F 76% 29.75 in 3 mi Calm Calm - - Rain Light Rain
8:00 PM 50.0 °F 48.2 °F 94% 29.74 in 3.1 mi Calm Calm - N/A Rain Light Rain
8:30 PM 50.0 °F 48.2 °F 94% 29.74 in 6.2 mi Calm Calm - N/A Rain Light Rain
9:00 PM 51.8 °F 50.0 °F 94% 29.77 in 6.2 mi Variable 1.2 mph - N/A Rain Light Rain
9:30 PM 51.8 °F 50.0 °F 94% 29.77 in 6.2 mi Variable 2.3 mph - N/A   Scattered Clouds
10:00 PM 51.8 °F 50.0 °F 94% 29.80 in 6.2 mi Calm Calm - N/A   Scattered Clouds
10:30 PM 50.0 °F 50.0 °F 100% 29.83 in 6.2 mi Calm Calm - N/A   Scattered Clouds
11:00 PM 50.0 °F 46.4 °F 87% 29.83 in 6.2 mi Variable 1.2 mph - N/A   Partly Cloudy
11:30 PM 48.2 °F 46.4 °F 93% 29.83 in 6.2 mi Variable 1.2 mph - N/A   Partly Cloudy